Theta_e
313 316 318 318 317 316 316 316 314 314 312 310 309 307 307 305 306 306 306 306 307 307 307 307 306 308 309 310 311 310 309 307 308 306 305 307 307 306 307 308 308 309 309
311 315 316 316 315 313 311 310 311 310 312 311 308 308 306 306 307 307 306 306 306 307 307 307 305 307 309 309 310 310 308 308 307 306 306 302 305 306 306 306 305 306 307
310 310 310 310 310 310 310 310 308 307 308 307 305 304 304 304 304 304 305 305 306 307 307 306 306 306 309 309 310 310 310 307 307 309 308 302 301 304 306 303 305 304 305
311 310 309 310 312 313 314 313 312 307 307 306 306 305 305 304 305 306 306 306 306 306 306 306 305 306 308 309 310 311 311 311 307 307 304 306 308 304 300 304 302 304 303
310 310 310 312 314 315 315 315 313 309 306 305 306 305 304 305 304 304 305 304 304 305 305 306 305 305 306 308 309 309 308 311 310 308 303 301 302 303 304 301 301 300 301
310 312 313 314 313 315 315 314 313 311 307 305 305 305 304 304 303 303 303 303 303 304 304 305 305 305 305 305 306 309 310 310 310 309 305 304 302 301 301 299 299 299 296
294 304 312 313 313 313 314 313 312 311 312 308 306 305 305 304 304 304 304 303 303 303 304 304 303 304 304 304 304 305 307 308 307 308 306 304 303 301 299 300 297 298 291
290 293 294 299 311 315 315 313 313 311 311 312 311 309 306 305 305 305 305 303 304 305 305 304 304 303 303 304 303 303 304 305 305 306 304 305 302 300 300 300 296 291 290
289 290 293 295 299 303 309 314 314 314 312 311 310 310 310 309 308 306 305 305 305 304 304 304 303 303 302 302 302 302 302 302 304 304 304 302 301 299 298 298 298 300 290
289 290 291 292 295 298 301 304 308 312 314 313 312 310 309 309 310 310 309 308 306 304 304 303 303 303 302 302 302 302 301 301 301 301 300 298 295 295 295 294 292 293 295
288 289 290 292 293 295 297 299 301 303 305 306 311 310 309 310 310 309 309 307 307 307 304 304 303 301 300 300 300 301 300 299 299 297 296 294 293 292 291 291 291 292 293
287 288 289 290 291 291 293 294 296 298 301 303 304 305 308 309 308 308 308 309 308 308 306 304 302 301 300 299 298 298 298 298 295 293 292 291 291 291 292 292 291 290 291
285 285 286 287 289 289 290 290 292 294 296 298 301 302 303 305 307 307 308 308 308 308 306 305 303 303 301 299 298 298 295 296 295 292 291 290 291 290 291 291 290 289 288
282 283 283 284 285 286 286 288 289 291 293 294 296 298 301 302 304 307 308 308 308 307 306 304 303 303 301 299 298 297 294 293 291 291 291 291 291 291 290 290 289 288 286
280 280 281 282 283 283 284 285 287 289 291 291 292 294 297 299 301 302 304 307 308 307 306 304 303 303 301 299 298 296 294 292 290 290 290 291 292 293 291 289 288 287 285
278 279 280 281 281 281 282 284 285 286 288 288 290 292 294 296 298 299 301 302 304 306 305 303 301 300 299 300 300 297 293 293 291 289 290 292 292 292 294 293 291 289 285
277 278 279 279 280 281 282 282 284 285 286 287 288 290 292 293 294 296 298 299 302 304 303 302 301 300 299 300 300 298 294 292 291 290 289 290 291 292 292 292 292 290 290
277 278 279 279 280 282 282 283 284 284 284 285 286 288 290 292 293 294 295 297 300 302 302 300 300 299 298 299 300 299 294 292 292 291 290 290 289 289 289 289 287 287 288
277 278 279 280 280 281 281 281 281 282 282 283 284 286 287 287 289 291 293 295 297 298 299 299 298 297 297 298 299 298 294 292 290 290 290 289 288 291 291 287 287 287 288
278 278 279 279 279 279 280 279 279 280 280 282 283 284 285 286 286 289 291 293 295 296 297 297 298 298 296 297 299 298 293 290 289 289 289 291 289 293 292 288 287 285 286
277 278 278 278 278 279 279 278 279 279 281 282 283 284 285 285 286 288 291 292 292 294 294 293 294 295 296 296 298 299 292 290 288 287 287 289 292 293 293 290 287 287 286
276 277 277 277 278 279 278 278 278 280 281 282 282 282 283 284 285 285 287 290 290 291 291 290 290 291 293 296 297 299 295 293 288 287 287 288 292 293 292 290 289 289 287
275 277 276 276 277 278 278 277 278 280 280 280 280 281 282 283 284 284 288 288 289 290 290 288 288 288 290 293 297 299 297 294 289 288 288 290 291 291 291 290 288 289 284
275 276 275 274 275 276 277 277 278 279 279 279 280 281 281 283 284 286 287 288 288 288 288 287 287 287 288 290 293 295 295 294 289 289 288 289 289 289 289 289 288 283 282
274 274 273 273 273 275 276 277 278 278 279 279 279 280 281 283 284 286 288 288 289 290 288 288 288 287 285 289 293 292 289 287 286 286 286 285 285 285 284 282 281 281 281
272 272 272 272 273 274 274 276 277 278 278 278 278 279 281 283 284 285 286 291 291 292 292 292 290 289 291 292 292 292 290 289 290 285 284 283 282 281 280 279 279 279 280
Wind_Speed
5 3 5 10 8 8 7 7 6 5 6 3 4 3 4 3 3 5 8 9 8 9 8 6 7 7 8 9 9 5 9 5 7 7 4 2 1 3 3 3 4 5 5
5 5 5 4 6 5 8 5 7 8 7 5 2 3 4 3 3 4 6 7 8 8 8 8 7 8 6 8 10 9 5 3 9 5 4 4 3 4 4 3 4 5 3
5 7 6 5 6 5 9 11 6 8 5 5 4 3 3 2 2 2 3 6 9 9 9 9 7 8 7 7 10 9 11 7 9 7 4 5 5 4 3 7 6 7 6
5 5 3 4 3 5 8 7 9 4 6 8 6 6 4 5 4 4 4 6 7 7 8 8 8 9 7 8 9 9 9 7 10 3 3 1 3 4 4 4 6 6 7
5 4 5 5 3 4 2 2 6 6 4 8 7 5 5 4 2 3 6 6 5 6 7 8 9 8 7 8 10 10 10 9 9 8 4 2 1 1 2 4 6 4 4
6 1 1 2 2 1 1 4 4 4 4 4 8 7 7 5 4 4 4 4 5 5 7 7 7 8 8 9 9 11 13 11 9 9 7 7 5 4 3 2 3 6 2
12 11 6 3 4 4 4 2 4 4 5 6 6 8 8 7 7 6 5 5 5 5 9 9 9 8 9 9 8 9 10 10 9 10 9 6 5 4 3 3 3 3 2
13 13 13 11 9 5 4 6 6 6 7 8 8 6 6 5 6 7 6 5 6 7 8 10 9 10 9 10 10 8 9 9 9 11 8 8 6 5 4 5 6 3 2
16 16 15 13 10 11 10 6 4 6 5 7 6 7 6 8 7 7 5 6 7 7 7 9 10 11 11 11 10 8 11 11 12 12 11 8 7 6 6 6 5 6 7
19 19 17 17 16 13 12 12 10 9 6 5 4 5 7 8 9 8 10 10 9 8 6 9 10 10 11 11 11 9 9 11 9 8 11 9 5 6 5 5 5 3 5
15 15 16 17 16 16 16 15 14 11 10 7 7 6 6 6 8 8 9 10 9 10 11 12 10 9 10 10 11 11 10 11 9 7 9 9 9 7 7 6 5 5 3
16 16 15 15 16 17 17 16 15 15 12 10 8 7 5 5 7 8 9 9 12 12 12 9 8 10 11 9 10 10 9 11 11 10 10 11 8 10 9 7 8 7 5
16 15 17 18 16 16 15 15 15 15 14 13 11 8 6 6 6 8 10 11 11 10 9 11 11 12 11 11 11 11 10 10 11 12 12 13 13 11 9 8 8 7 6
15 15 16 16 16 16 17 17 16 14 14 15 13 12 11 8 8 8 8 8 10 10 9 10 10 10 10 11 11 13 13 10 10 11 13 14 14 14 12 9 9 8 7
19 18 18 17 17 18 18 18 16 16 16 15 14 13 12 11 9 8 7 8 8 9 9 9 10 10 9 8 13 13 13 16 14 15 14 14 17 20 16 10 10 10 5
17 17 17 18 19 19 19 19 19 20 19 18 16 14 13 13 11 10 8 8 7 8 9 9 10 10 8 16 22 16 12 13 15 15 15 13 17 20 23 18 19 14 11
17 18 18 17 16 17 18 18 19 18 18 19 19 17 16 15 13 12 11 9 8 8 8 9 10 11 11 18 22 23 12 14 14 15 14 12 10 16 12 18 19 16 15
16 16 15 16 16 16 16 18 18 17 17 17 18 18 17 17 17 14 13 12 9 10 9 9 10 10 9 17 22 24 12 13 15 15 16 15 14 13 14 13 11 10 11
12 11 13 15 16 16 16 16 17 17 17 17 17 18 18 19 19 19 16 13 12 12 11 8 10 11 10 18 21 20 12 12 14 14 16 15 15 22 23 14 13 13 10
10 12 13 12 12 14 14 15 15 15 17 18 19 19 18 18 19 19 18 15 13 15 10 9 10 14 12 17 22 21 9 12 10 12 14 25 19 28 25 14 15 14 13
13 12 11 11 13 14 15 17 17 17 18 19 19 19 19 19 19 18 16 14 15 15 10 10 9 10 12 12 23 27 13 12 12 12 11 11 28 28 27 22 13 14 12
17 13 11 12 12 12 13 16 17 17 18 19 21 21 21 17 14 18 19 15 15 15 12 9 8 7 10 17 20 28 27 22 14 14 11 13 28 25 27 20 18 19 17
12 12 14 16 14 13 13 15 16 19 20 21 20 21 22 20 18 17 16 14 13 11 10 8 8 7 7 9 22 25 30 27 13 10 17 23 25 26 21 22 22 21 9
11 11 12 13 16 16 17 16 17 18 19 20 21 18 17 20 18 14 13 9 10 9 9 8 9 8 7 8 8 10 14 19 11 18 16 18 19 17 13 16 15 8 7
12 12 12 13 14 15 16 17 18 20 19 19 19 16 14 17 16 13 10 10 11 12 9 9 8 8 8 10 14 14 11 11 14 15 12 11 10 11 9 7 8 7 7
12 12 14 15 15 15 16 16 15 18 19 19 17 16 15 14 12 12 10 15 22 21 22 21 13 8 16 17 21 23 23 25 29 14 13 11 12 11 10 9 8 7 9
Wind_Direction
169 132 93 123 137 142 152 143 139 148 152 156 154 159 179 179 200 209 211 203 197 190 192 190 184 178 177 180 175 156 160 146 151 124 109 96 145 175 174 168 168 165 155
133 105 159 128 127 136 112 156 147 157 181 179 156 145 157 185 197 207 208 199 198 193 196 197 194 187 176 176 179 169 156 131 178 148 134 166 197 227 206 198 203 190 166
112 104 93 94 105 156 175 156 126 137 157 152 124 86 89 90 175 197 202 207 202 198 198 193 186 188 188 186 189 182 178 164 193 197 159 160 205 170 182 211 205 195 196
87 93 130 156 228 233 205 163 124 129 162 170 177 175 179 184 199 193 199 207 205 203 196 192 190 190 190 191 192 192 189 175 183 204 232 355 139 177 181 207 212 205 203
96 134 167 181 211 238 232 103 126 146 169 179 191 207 210 202 169 175 194 203 209 210 202 200 196 197 196 200 192 188 194 199 189 197 158 172 135 116 146 171 184 207 211
11 325 250 244 248 151 184 113 162 170 175 212 196 209 224 208 186 185 201 199 200 207 213 208 208 206 206 203 200 202 204 203 206 202 198 192 175 181 159 131 160 207 160
15 9 348 250 243 222 207 214 205 189 182 203 227 219 222 209 222 210 208 196 208 215 217 202 205 207 205 201 197 202 210 209 208 200 207 209 195 153 145 140 128 157 138
8 13 3 354 344 317 219 192 214 234 188 217 229 213 206 225 225 228 219 213 215 219 214 207 207 211 208 210 201 201 206 206 210 209 204 211 196 181 174 168 149 137 160
10 12 16 10 3 360 3 333 237 225 221 230 219 226 222 232 239 230 218 226 229 225 209 206 212 211 205 206 205 214 210 203 205 209 200 201 195 188 185 179 178 173 173
19 16 18 16 15 11 4 15 8 355 333 289 238 231 234 233 234 234 235 237 244 231 214 219 215 213 215 208 205 214 220 210 206 199 198 195 178 177 173 171 167 171 148
18 16 11 12 13 17 18 17 12 6 0 360 341 303 281 259 246 237 241 233 239 238 225 221 217 223 223 211 210 215 206 210 207 194 184 180 163 164 152 145 136 129 119
7 7 11 11 15 11 9 9 7 8 0 343 342 334 305 289 287 269 250 238 230 226 222 217 205 207 215 215 212 214 210 204 189 182 172 167 154 152 147 148 139 130 130
7 7 7 6 4 4 1 360 358 356 352 350 342 333 324 308 276 263 264 268 259 242 218 211 214 218 215 201 205 201 192 198 188 172 168 162 159 154 154 154 144 139 134
4 1 3 359 356 354 352 351 349 350 346 343 340 336 339 328 315 297 273 254 245 241 228 219 221 217 211 205 198 191 184 182 176 172 168 167 169 162 158 154 149 143 133
1 360 354 351 349 348 346 344 342 342 342 336 335 333 326 318 311 308 296 278 260 242 232 226 222 220 207 203 202 198 189 169 173 170 175 173 171 175 166 152 163 158 127
354 352 348 347 346 344 340 337 337 337 337 332 327 326 324 321 313 307 303 294 270 246 235 223 221 212 213 211 204 189 184 188 179 177 176 181 174 175 172 178 168 154 142
348 345 343 341 338 337 333 333 330 328 329 325 323 323 323 317 316 309 298 286 274 263 241 230 221 219 216 210 208 199 187 182 184 183 173 166 173 168 163 162 148 144 181
343 339 336 332 332 329 333 330 328 326 323 319 318 319 318 317 314 311 304 292 273 261 249 239 231 230 224 213 206 203 195 190 186 181 178 173 171 170 161 154 137 154 187
327 324 324 324 320 327 329 327 326 326 324 322 319 319 316 312 310 303 299 295 286 273 252 233 227 224 228 217 210 197 191 194 189 180 177 173 166 176 162 143 154 169 183
324 325 321 312 318 318 320 320 319 320 317 319 315 310 305 301 296 293 292 291 280 269 260 246 232 226 227 215 209 197 186 186 178 178 178 176 169 171 162 161 167 174 177
327 329 323 324 323 326 330 327 325 323 320 312 310 307 302 299 295 291 285 280 284 271 248 241 237 236 224 217 211 202 188 187 177 179 173 177 174 169 174 174 176 179 160
330 331 330 326 324 329 332 325 321 317 313 313 311 309 305 297 292 285 281 273 276 264 245 228 228 228 228 223 218 210 196 191 182 181 172 171 169 174 179 172 183 173 168
320 324 327 324 327 329 329 318 319 322 321 319 312 311 306 301 297 286 278 275 267 246 241 225 225 219 217 221 223 222 196 193 187 174 169 164 168 175 176 172 180 178 159
315 325 320 323 321 326 325 320 319 321 322 322 316 312 306 306 302 290 273 263 261 239 235 226 228 217 208 213 215 202 186 188 168 163 157 161 159 166 172 163 174 144 156
323 324 322 319 319 320 318 320 321 324 322 321 320 313 309 303 301 287 269 262 253 238 231 227 224 214 210 207 196 176 170 161 162 148 146 152 158 156 143 132 131 138 150
324 323 322 319 319 317 317 316 324 321 326 322 325 319 318 309 307 302 288 268 260 251 247 242 224 224 224 206 191 178 161 160 157 156 159 156 151 144 142 142 145 150 155